[[{"header":{"parameterUnit":"m.s-1","parameterCategory":1,"la1":30.2992,"la2":30.254,"lo1":-89.0895,"lo2":-89.0443,"dy":0.0025,"dx":0.0025,"nx":19,"ny":19,"refTime":"2026-04-09T03:00:00:Z","depth":0,"parameterNumber":2,"parameterNumberName":"U-component_of_WINDS"},"data":[0,0,0,-9.1258,-9.1262,-9.1408,-9.1408,-9.1651,-9.1654,0,0,0,0,0,0,0,0,0,0,0,-9.1252,-9.1255,-9.1257,-9.1262,-9.1408,-9.1408,-9.1651,-9.1654,0,0,0,0,0,0,0,0,0,0,0,-9.125,-9.1254,-9.1258,-9.1263,-9.1408,-9.1408,-9.165,-9.1519,0,0,0,0,0,0,0,0,0,0,-9.1368,-9.1399,-9.1253,-9.1258,-9.1264,-9.1408,-9.1408,-9.1512,-9.1528,-9.1611,0,-9.1696,0,-9.168,-9.1674,-9.1675,0,0,0,-9.1234,-9.1387,-9.1392,-9.1258,-9.1266,-9.1407,-9.1334,-9.152,-9.1538,-9.1632,-9.1699,-9.1706,-9.1684,-9.1676,-9.1678,-9.2253,-9.2257,0,0,-9.1226,-9.1297,-9.1381,-9.1406,-9.1389,-9.133,-9.1339,-9.153,-9.1607,-9.17,-9.1711,-9.1688,-9.1678,-9.168,-9.2249,-9.2254,0,0,0,-9.1222,-9.1293,-9.1293,-9.1397,-9.1419,-9.1335,-9.1345,-9.1599,-9.1593,-9.1713,-9.1691,-9.168,-9.1684,-9.2245,-9.2251,-9.2518,0,0,0,-9.1216,-9.129,-9.1291,-9.1336,-9.1417,-9.1512,-9.1412,-9.158,-9.1599,-9.1689,-9.168,-9.1687,-9.224,-9.2248,-9.2501,-9.2632,0,0,0,-9.1229,-9.1291,-9.1325,-9.134,-9.1405,-9.1507,-9.1511,-9.1582,-9.1587,-9.1675,-9.1687,-9.2237,-9.2247,-9.2486,-9.2607,-9.2803,0,0,0,-9.1264,-9.1561,-9.1331,-9.1653,-9.1405,-9.1672,-9.1509,-9.1704,-9.1812,-9.1681,-9.2241,-9.2251,-9.2481,-9.2591,-9.2787,-9.298,-9.3068,0,0,-9.1678,-9.1614,-9.1797,-9.1596,-9.1923,-9.1644,-9.2009,-9.2039,-9.1982,-9.2166,-9.2179,-9.2507,-9.2605,-9.28,-9.3536,-9.3606,0,0,0,-9.1953,-9.2086,-9.2157,-9.2263,-9.2295,-9.2331,-9.2299,-9.231,-9.2462,-9.2092,-9.2629,-9.2685,-9.2796,-9.2885,-9.2945,-9.3034,-9.2295,-9.2294,-9.2293,-9.2641,-9.2552,-9.2849,-9.2778,-9.2883,-9.2846,-9.2923,-9.293,-9.281,-9.2938,-9.2992,-9.345,-9.3556,-9.36,-9.3695,-9.3088,-9.3089,-9.309,-9.309,-9.3238,-9.3411,-9.3243,-9.3471,-9.3375,-9.3564,-9.354,-9.3448,-9.3609,-9.3402,-9.3495,-9.3276,-9.368,-9.3758,-9.3109,-9.3106,-9.3104,-9.3102,-9.31,-9.3677,-9.3744,-9.3753,-9.3897,-9.4018,-9.3934,-9.4096,-9.4002,-9.3915,-9.4008,-9.4052,-9.4048,-9.403,-9.4036,-9.4038,-9.4039,-9.4041,-9.4042,-9.4043,-9.4129,-9.413,-9.4279,-9.4337,-9.4392,-9.4453,-9.4418,-9.4469,-9.4501,-9.4419,-9.4419,-9.4285,-9.3737,-9.3601,-9.4067,-9.4063,-9.406,-9.4057,-9.4056,-9.4765,-9.4606,-9.4837,-9.4892,-9.495,-9.5075,-9.4953,-9.5065,-9.5093,-9.5176,-9.5022,-9.4633,-9.4559,-9.4511,-9.4397,-9.5041,-9.5041,-9.5041,-9.5041,-9.5134,-9.5088,-9.5301,-9.5396,-9.5477,-9.539,-9.5651,-9.5627,-9.5576,-9.5587,-9.5481,-9.5322,-9.5277,-9.523,-9.5166,-9.5058,-9.5856,-9.5857,-9.5858,-9.5519,-9.5476,-9.5717,-9.5666,-9.5704,-9.5739,-9.5981,-9.6094,-9.6003,-9.5889,-9.5594,-9.5559,-9.5302,-9.5224,-9.5102,-9.5005,-9.4805,0,0]},{"header":{"parameterUnit":"m.s-1","parameterCategory":1,"la1":30.2992,"la2":30.254,"lo1":-89.0895,"lo2":-89.0443,"dy":0.0025,"dx":0.0025,"nx":19,"ny":19,"refTime":"2026-04-09T03:00:00:Z","depth":0,"parameterNumber":3,"parameterNumberName":"V-component_of_WINDS"},"data":[0,0,0,-0.7165,-0.7165,-0.7183,-0.7183,-0.7208,-0.7208,0,0,0,0,0,0,0,0,0,0,0,-0.7161,-0.7161,-0.7165,-0.7165,-0.7183,-0.7183,-0.7208,-0.7208,0,0,0,0,0,0,0,0,0,0,0,-0.7161,-0.7161,-0.7161,-0.7165,-0.7183,-0.7183,-0.7208,-0.7194,0,0,0,0,0,0,0,0,0,0,-0.7176,-0.7174,-0.7161,-0.7161,-0.7165,-0.7183,-0.7183,-0.7193,-0.7195,-0.7201,0,-0.7207,0,-0.7208,-0.721,-0.721,0,0,0,-0.7164,-0.7172,-0.7176,-0.7161,-0.7166,-0.7183,-0.7175,-0.7194,-0.7196,-0.7203,-0.7207,-0.7208,-0.7208,-0.721,-0.7211,-0.7247,-0.7247,0,0,-0.7163,-0.7165,-0.7175,-0.7177,-0.7174,-0.7174,-0.7175,-0.7195,-0.72,-0.7207,-0.7208,-0.7209,-0.7211,-0.7211,-0.7247,-0.7247,0,0,0,-0.7161,-0.7164,-0.7167,-0.7176,-0.7179,-0.7175,-0.7176,-0.7199,-0.72,-0.7209,-0.7209,-0.7211,-0.7211,-0.7246,-0.7247,-0.7258,0,0,0,-0.716,-0.7163,-0.7167,-0.7168,-0.7179,-0.7189,-0.718,-0.7198,-0.72,-0.7209,-0.7211,-0.7211,-0.7246,-0.7247,-0.7257,-0.7263,0,0,0,-0.7159,-0.7163,-0.7166,-0.7168,-0.7176,-0.7189,-0.7191,-0.7199,-0.7201,-0.721,-0.7211,-0.7246,-0.7247,-0.7256,-0.7262,-0.7272,0,0,0,-0.7158,-0.7177,-0.7166,-0.7186,-0.7176,-0.7196,-0.7191,-0.7206,-0.7215,-0.7211,-0.7246,-0.7247,-0.7256,-0.7261,-0.7272,-0.7281,-0.7285,0,0,-0.7182,-0.718,-0.7191,-0.7182,-0.7204,-0.7193,-0.7216,-0.7224,-0.7224,-0.7239,-0.724,-0.7257,-0.7262,-0.7272,-0.7308,-0.7312,0,0,0,-0.7199,-0.7208,-0.7213,-0.7222,-0.7227,-0.7232,-0.7236,-0.7238,-0.7251,-0.7232,-0.7264,-0.7267,-0.7273,-0.7277,-0.728,-0.7284,-0.7249,-0.7249,-0.7249,-0.7236,-0.7234,-0.7252,-0.7251,-0.726,-0.7262,-0.7268,-0.7272,-0.7269,-0.7276,-0.728,-0.7303,-0.7308,-0.731,-0.7315,-0.7285,-0.7285,-0.7285,-0.7285,-0.7271,-0.7282,-0.7274,-0.7289,-0.7286,-0.7299,-0.7301,-0.7298,-0.7309,-0.73,-0.7305,-0.7295,-0.7314,-0.7318,-0.7286,-0.7286,-0.7286,-0.7286,-0.7286,-0.7295,-0.7299,-0.7301,-0.7311,-0.732,-0.7318,-0.7328,-0.7325,-0.7323,-0.7328,-0.7331,-0.7331,-0.733,-0.733,-0.733,-0.733,-0.733,-0.733,-0.733,-0.7319,-0.732,-0.7329,-0.7334,-0.7338,-0.7343,-0.7344,-0.7348,-0.7351,-0.7348,-0.7348,-0.7343,-0.7316,-0.7309,-0.7331,-0.7331,-0.7331,-0.7331,-0.7331,-0.7355,-0.7345,-0.7359,-0.7363,-0.7368,-0.7375,-0.737,-0.7378,-0.7381,-0.7385,-0.7378,-0.7359,-0.7357,-0.7354,-0.7349,-0.7379,-0.7379,-0.7379,-0.7379,-0.7374,-0.7372,-0.7384,-0.739,-0.7395,-0.7392,-0.7406,-0.7406,-0.7405,-0.7406,-0.7401,-0.7393,-0.7391,-0.739,-0.7387,-0.7381,-0.742,-0.742,-0.742,-0.7396,-0.7393,-0.7407,-0.7404,-0.7407,-0.741,-0.7423,-0.743,-0.7426,-0.7421,-0.7407,-0.7405,-0.7392,-0.7388,-0.7384,-0.7379,-0.737,0,0]}]]